[[{"header":{"parameterUnit":"m.s-1","parameterCategory":1,"la1":30.2991,"la2":30.254,"lo1":-89.0895,"lo2":-89.0444,"dy":0.0017,"dx":0.0017,"nx":28,"ny":28,"refTime":"2023-06-19T21:00:00:Z","depth":0,"parameterNumber":2,"parameterNumberName":"U-component_of_WINDS"},"data":[0,0,0,0,0,0,0,0,0,0,0,0,0,0,0,0,0,0,0,0,0,0,0,0,0,0,0,0,0,0,0,0,0,0,0,0,0,0,0,0,0,0,0,0,0,0,0,0,0,0,0,0,0,0,0,0,0,0,3.8576,3.8578,0,3.8718,3.8719,3.8721,3.8714,3.8712,3.871,3.8708,3.8857,3.8863,3.8868,0,0,0,0,0,0,0,0,0,0,0,0,0,3.8305,3.831,3.8576,3.8578,3.858,3.8717,3.8719,3.8721,3.8715,3.8712,3.871,3.8707,3.8855,3.8862,3.8869,0,0,0,0,0,0,0,0,0,0,0,0,0,3.8432,3.8311,3.8576,3.8593,3.8596,3.8717,3.8719,3.8722,3.8715,3.8712,3.8709,3.8706,3.8853,3.8861,3.887,3.8984,0,0,3.8897,3.89,0,0,0,0,0,0,0,0,3.8425,3.8442,3.8589,3.8592,3.8595,3.8695,3.8678,3.881,3.8716,3.867,3.8708,3.8705,3.8806,3.8818,3.8851,3.8991,3.8998,3.8897,3.8903,3.8906,3.8909,0,0,0,0,0,0,0,3.8416,3.8436,3.8632,3.8591,3.8595,3.8595,3.861,3.8703,3.8753,3.8674,3.8674,3.869,3.8807,3.8843,3.8855,3.9,3.8897,3.8905,3.891,3.8914,3.9242,3.9246,0,0,0,0,0,0,3.8403,3.8428,3.8628,3.8636,3.8501,3.8602,3.8619,3.8666,3.8752,3.8762,3.8693,3.8689,3.883,3.8845,3.886,3.9001,3.8906,3.8915,3.892,3.9239,3.9243,3.9247,0,0,0,0,0,0,3.8397,3.8421,3.8622,3.8533,3.8558,3.861,3.8664,3.8671,3.8707,3.8766,3.8776,3.872,3.8828,3.8848,3.8954,3.9006,3.8918,3.8926,3.9235,3.924,3.9245,3.9282,0,0,0,0,0,0,3.8389,3.8419,3.8462,3.8533,3.8563,3.8712,3.8667,3.8676,3.8721,3.8718,3.8794,3.8804,3.8827,3.8941,3.8962,3.9016,3.8933,3.923,3.9237,3.9243,3.9276,3.9288,3.9297,0,0,0,0,0,3.838,3.8467,3.8464,3.8488,3.8618,3.8715,3.8732,3.8755,3.8725,3.877,3.8808,3.8802,3.8996,3.8951,3.8976,3.9033,3.9227,3.9235,3.9243,3.9271,3.9285,3.9297,0,0,0,0,0,0,3.8401,3.8477,3.8474,3.8587,3.8644,3.8714,3.877,3.8769,3.8837,3.8832,3.8859,3.8876,3.8982,3.9018,3.8967,3.9149,3.9108,3.9121,3.9122,3.9135,3.9146,3.9135,3.8941,0,0,0,0,0,3.8418,3.849,3.8553,3.8647,3.8675,3.8718,3.8761,3.8774,3.8835,3.886,3.8906,3.8967,3.9042,3.9091,3.9163,3.9281,3.9299,3.9333,3.9344,3.9352,3.9363,3.9429,3.9446,3.9273,3.9272,3.9272,0,0,3.8456,3.8506,3.855,3.8652,3.8698,3.8773,3.8738,3.8819,3.8875,3.8873,3.8975,3.9011,3.9081,3.9194,3.9246,3.9227,3.9415,3.9362,3.9368,3.9375,3.9439,3.9456,3.947,3.9278,3.9277,3.9276,0,0,3.8562,3.8607,3.8691,3.8737,3.8807,3.8835,3.8855,3.8925,3.8949,3.9052,3.9052,3.912,3.9248,3.9297,3.934,3.9466,3.9463,3.9489,3.9545,3.9609,3.9623,3.9635,3.968,3.9696,3.95,3.95,3.95,0,3.86,3.8712,3.8734,3.8815,3.886,3.8861,3.8946,3.8991,3.9081,3.9113,3.9091,3.9252,3.9299,3.9424,3.9455,3.9489,3.9513,3.948,3.9619,3.9631,3.9643,3.9687,3.9704,3.9503,3.9502,3.9502,3.9502,0,3.8756,3.8833,3.8892,3.8978,3.9031,3.9113,3.9149,3.92,3.9209,3.9239,3.9345,3.9401,3.9485,3.9516,3.9526,3.9643,3.9629,3.9612,3.9572,3.9662,3.9703,3.972,3.9507,3.9506,3.9505,3.9504,0,0,3.8879,3.8976,3.8998,3.9037,3.9115,3.9176,3.926,3.934,3.9384,3.9447,3.9518,3.9627,3.9612,3.966,3.9675,3.9732,3.9829,3.9708,3.971,3.9729,3.9962,3.9974,3.9993,3.9827,3.9831,3.9833,3.9957,0,3.8993,3.914,3.9163,3.9293,3.9365,3.9367,3.944,3.9496,3.9528,3.9595,3.963,3.9706,3.9681,3.971,3.9766,3.9805,3.9876,3.9797,3.9895,3.9898,3.9877,4.0015,4.0028,4.0141,3.9973,3.9976,3.9978,0,3.9146,3.9212,3.9349,3.9417,3.9449,3.9514,3.959,3.9654,3.9719,3.9737,3.9791,3.98,3.9888,3.9844,3.9966,3.9912,3.9953,3.9979,3.9984,3.9994,3.9943,4.0029,4.0178,4.0195,4.0004,4.0002,4.0,0,3.9223,3.9346,3.9444,3.9478,3.956,3.9606,3.9642,3.9704,3.9751,3.9819,3.985,3.9927,3.997,4.003,4.006,4.0025,4.0181,4.0139,4.02,4.0199,4.0233,4.023,4.0391,4.026,4.0259,4.0259,4.0259,0,3.9349,3.9432,3.9479,3.9539,3.9634,3.966,3.9753,3.9789,3.9843,3.9911,3.9919,3.9983,4.0018,4.0088,4.0113,4.0211,4.023,4.0248,4.0254,4.0248,4.0245,4.0275,4.0268,4.0264,4.0263,4.0262,4.0261,0,3.945,3.9484,3.9591,3.966,3.968,3.9746,3.9806,3.9866,3.9897,3.9983,4.0005,4.0054,4.0136,4.0172,4.0274,4.0291,4.0403,4.0403,4.0381,4.0383,4.0441,4.0435,4.0627,4.0653,4.0505,4.0506,4.0507,0,3.9527,3.9592,3.9668,3.9713,3.9751,3.9825,3.9873,3.9902,3.9952,4.0031,4.0081,4.0164,4.0231,4.0363,4.0409,4.0487,4.0489,4.0551,4.0501,4.0493,4.049,4.0485,4.0492,4.056,4.0561,4.0562,4.0563,0,3.9662,3.9676,3.9745,3.982,3.9878,3.9939,3.9999,4.0036,4.0075,4.0131,4.0215,4.0267,4.0371,4.0453,4.0534,4.0574,4.0576,4.0579,4.0597,4.0591,4.0575,4.0585,4.0405,4.0574,4.0573,4.0572,4.0572,4.0571,3.9754,3.9811,3.9874,3.9951,3.9999,4.0054,4.0113,4.0152,4.0222,4.0308,4.0321,4.0411,4.0475,4.0584,4.0627,4.0698,4.0683,4.071,4.0716,4.0722,4.0726,4.0564,4.0713,4.0713,4.0713,4.0713,4.0712,0,3.9888,3.9929,3.9999,4.0082,4.0143,4.0139,4.0205,4.0257,4.0335,4.0394,4.046,4.0557,4.0637,4.0689,4.077,4.0818,4.0821,4.0838,4.0835,4.0844,4.0735,4.0711,4.0834,4.0834,4.0834,4.0834,4.0834,4.0834,3.9965,4.0062,4.0084,4.0206,4.0246,4.0333,4.0371,4.0424,4.0471,4.0578,4.0644,4.0678,4.0735,4.082,4.0893,4.0907,4.0936,4.0954,4.0967,4.0864,4.0851,4.0839,4.0817,4.0961,4.0961,4.107,4.1071,4.1072]},{"header":{"parameterUnit":"m.s-1","parameterCategory":1,"la1":30.2991,"la2":30.254,"lo1":-89.0895,"lo2":-89.0444,"dy":0.0017,"dx":0.0017,"nx":28,"ny":28,"refTime":"2023-06-19T21:00:00:Z","depth":0,"parameterNumber":3,"parameterNumberName":"V-component_of_WINDS"},"data":[0,0,0,0,0,0,0,0,0,0,0,0,0,0,0,0,0,0,0,0,0,0,0,0,0,0,0,0,0,0,0,0,0,0,0,0,0,0,0,0,0,0,0,0,0,0,0,0,0,0,0,0,0,0,0,0,0,0,2.7903,2.7904,0,2.7969,2.797,2.7971,2.7972,2.7971,2.797,2.7969,2.8034,2.8036,2.8039,0,0,0,0,0,0,0,0,0,0,0,0,0,2.7773,2.7775,2.7903,2.7904,2.7905,2.7969,2.797,2.7971,2.7972,2.7971,2.797,2.7969,2.8033,2.8036,2.8039,0,0,0,0,0,0,0,0,0,0,0,0,0,2.7833,2.7776,2.7903,2.7913,2.7914,2.7969,2.797,2.7971,2.7972,2.7971,2.7969,2.7968,2.8032,2.8036,2.8039,2.8087,0,0,2.8051,2.8052,0,0,0,0,0,0,0,0,2.7829,2.7838,2.7911,2.7912,2.7914,2.7961,2.7948,2.801,2.7972,2.795,2.7969,2.7968,2.801,2.8016,2.8031,2.809,2.8093,2.8051,2.8053,2.8055,2.8056,0,0,0,0,0,0,0,2.7825,2.7835,2.7929,2.7912,2.7914,2.7912,2.792,2.7959,2.7986,2.7952,2.7952,2.796,2.8011,2.8027,2.8032,2.8094,2.8051,2.8054,2.8056,2.8058,2.8192,2.8193,0,0,0,0,0,0,2.782,2.7831,2.7927,2.7931,2.7868,2.7916,2.7924,2.7947,2.7986,2.7991,2.7961,2.796,2.8021,2.8028,2.8035,2.809,2.8055,2.8058,2.806,2.819,2.8192,2.8193,0,0,0,0,0,0,2.7817,2.7828,2.7924,2.7881,2.7893,2.7919,2.7945,2.7949,2.7965,2.7993,2.7997,2.7973,2.8021,2.8029,2.8073,2.8093,2.806,2.8063,2.8189,2.8191,2.8193,2.8204,0,0,0,0,0,0,2.7813,2.7827,2.7847,2.7882,2.7896,2.7964,2.7947,2.7951,2.7972,2.7971,2.8005,2.8009,2.802,2.8068,2.8077,2.8097,2.8066,2.8187,2.819,2.8192,2.8202,2.8206,2.821,0,0,0,0,0,2.7808,2.7848,2.7848,2.786,2.7921,2.7965,2.7973,2.7985,2.7974,2.7993,2.801,2.8008,2.8089,2.8072,2.8083,2.8104,2.8186,2.8189,2.8192,2.8201,2.8206,2.821,0,0,0,0,0,0,2.7814,2.7853,2.7853,2.7905,2.7932,2.7965,2.7989,2.7991,2.802,2.8018,2.8031,2.8039,2.8082,2.8098,2.8078,2.8151,2.8136,2.8141,2.8139,2.8144,2.8148,2.8142,2.8069,0,0,0,0,0,2.7822,2.7855,2.7886,2.7929,2.7942,2.7963,2.7983,2.799,2.8018,2.8029,2.8049,2.8075,2.8106,2.8126,2.8156,2.8205,2.8211,2.8225,2.8228,2.8232,2.8235,2.8259,2.8265,2.8203,2.8203,2.8203,0,0,2.7837,2.7862,2.7882,2.7931,2.7952,2.7984,2.7973,2.8009,2.8032,2.8034,2.8076,2.8092,2.8121,2.8167,2.8188,2.8181,2.8254,2.8235,2.8238,2.824,2.8262,2.8268,2.8273,2.8205,2.8205,2.8205,0,0,2.7881,2.7905,2.7941,2.7963,2.7995,2.8009,2.8017,2.805,2.8061,2.8104,2.8105,2.8132,2.8186,2.8206,2.8223,2.8272,2.8271,2.8282,2.8301,2.8324,2.8329,2.8333,2.8348,2.8354,2.8286,2.8286,2.8286,0,2.7896,2.7946,2.796,2.7995,2.8015,2.8018,2.8054,2.8074,2.8114,2.8127,2.8119,2.8185,2.8205,2.8254,2.8266,2.828,2.8289,2.8278,2.8328,2.8332,2.8336,2.835,2.8356,2.8287,2.8287,2.8287,2.8286,0,2.7961,2.7996,2.8021,2.806,2.8083,2.8118,2.8135,2.8156,2.8161,2.8175,2.8216,2.8241,2.8275,2.8287,2.8292,2.8336,2.833,2.8325,2.831,2.8343,2.8356,2.8362,2.8288,2.8288,2.8287,2.8287,0,0,2.8011,2.8056,2.8065,2.8081,2.8116,2.8142,2.8176,2.821,2.8226,2.8254,2.8281,2.8325,2.832,2.8339,2.8347,2.8367,2.84,2.8359,2.8359,2.8363,2.8447,2.8449,2.8455,2.84,2.8401,2.8402,2.8443,0,2.8057,2.8119,2.8131,2.8184,2.8214,2.8217,2.8246,2.827,2.8283,2.8309,2.8323,2.8354,2.8345,2.8357,2.8377,2.8392,2.8417,2.839,2.8423,2.8424,2.8414,2.8463,2.8466,2.8504,2.8449,2.845,2.8451,0,2.8119,2.8148,2.8204,2.8232,2.8245,2.8272,2.8302,2.8328,2.8353,2.8361,2.8382,2.8386,2.8419,2.8404,2.8448,2.8429,2.8443,2.8452,2.8454,2.8456,2.8438,2.8464,2.8516,2.8521,2.846,2.8459,2.8458,0,2.8147,2.8199,2.8239,2.8253,2.8288,2.8306,2.8321,2.8346,2.8364,2.839,2.8401,2.8431,2.8447,2.8468,2.8479,2.8468,2.8522,2.8508,2.8527,2.8527,2.8538,2.8536,2.859,2.855,2.855,2.855,2.855,0,2.8196,2.8229,2.8251,2.8275,2.8312,2.8325,2.836,2.8374,2.8396,2.8421,2.8426,2.8449,2.8463,2.8488,2.8497,2.8531,2.8538,2.8544,2.8545,2.8542,2.8541,2.8551,2.8548,2.8551,2.8551,2.8551,2.855,0,2.8233,2.8249,2.8292,2.8321,2.8329,2.8354,2.8378,2.84,2.8413,2.8445,2.8453,2.8472,2.8502,2.8515,2.8551,2.8557,2.8595,2.8596,2.8586,2.8586,2.8604,2.8601,2.8665,2.8673,2.8629,2.8629,2.8629,0,2.8262,2.8288,2.8319,2.8337,2.8352,2.8381,2.8399,2.8412,2.8431,2.8461,2.8479,2.8508,2.8532,2.8578,2.8595,2.8622,2.8622,2.8642,2.8626,2.8621,2.8619,2.8617,2.8618,2.8644,2.8645,2.8645,2.8646,0,2.8311,2.8318,2.8345,2.8374,2.8396,2.842,2.8443,2.8457,2.8473,2.8494,2.8524,2.8542,2.8579,2.8607,2.8635,2.8648,2.8649,2.8651,2.8656,2.8653,2.8645,2.8647,2.8592,2.8649,2.8649,2.8648,2.8648,2.8648,2.8344,2.8365,2.8391,2.842,2.8439,2.846,2.8481,2.8496,2.8522,2.8553,2.8559,2.859,2.8612,2.8649,2.8664,2.8687,2.8682,2.8691,2.8692,2.8694,2.8694,2.8643,2.8692,2.8692,2.8692,2.8692,2.8692,0,2.8391,2.8407,2.8434,2.8466,2.8488,2.8488,2.8513,2.8531,2.8559,2.858,2.8604,2.8637,2.8663,2.8681,2.8708,2.8723,2.8723,2.8729,2.8727,2.873,2.8698,2.8689,2.8728,2.8728,2.8728,2.8728,2.8728,2.8728,2.8418,2.8454,2.8463,2.8508,2.8523,2.8554,2.8568,2.8586,2.8603,2.864,2.8663,2.8674,2.8693,2.8721,2.8745,2.8749,2.8758,2.8763,2.8767,2.8736,2.8732,2.8729,2.8721,2.8766,2.8766,2.8797,2.8797,2.8798]}]]